Location: Putah Creek Observatory
(38.7021°N, 122.3865°W)
Time: 20:39:15
(UTC-07:00)

Daily predictions for brighter satellites

Satellite Brightness Start Highest point End
(mag) Time Altitude Azimuth Time Altitude Azimuth Time Altitude Azimuth
NOAA 12 4.4 19:17:52 10° SE 19:22:50 44° ENE 19:27:49 10° N
IDEFIX/ARIANE 42P 3.7 19:19:40 10° S 19:24:43 50° W 19:29:49 10° NNW
SAR-Lupe-1 4.2 19:24:38 10° SSE 19:28:05 50° ENE 19:31:33 10° N
Cosmos 1953 3.8 19:27:09 10° SE 19:29:39 16° E 19:32:08 10° NE
MSX 4.2 19:24:05 10° S 19:29:47 71° WSW 19:35:33 10° NNW
ATLAS CENTAUR R/B 3.4 19:26:58 10° SSW 19:31:16 55° ESE 19:43:51 10° NE
Cosmos 1371 Rocket 4.0 19:26:03 10° NNW 19:31:20 69° ENE 19:36:38 10° SSE
ATLAS 5 CENTAUR R/B 2.8 19:27:39 10° SSE 19:31:30 25° ESE 19:35:34 10° ENE
CZ-4C R/B 2.7 19:26:45 10° SW 19:31:58 63° NW 19:37:50 10° NNE
Aureole 2 Rocket 3.3 19:28:41 10° S 19:32:52 45° ESE 19:37:02 10° NNE
NOSS 3-2 (C) 3.9 19:27:38 10° S 19:33:12 40° ESE 19:39:09 10° NE
Cosmos 1980 4.4 19:27:47 10° SW 19:33:21 61° WNW 19:38:58 10° NNE
Cosmos 1812 Rocket 4.5 19:34:15 10° SSW 19:38:29 53° W 19:42:44 10° N
SL-16 R/B 2.3 19:33:04 10° S 19:38:37 59° ESE 19:44:13 10° NNE
Tiangong 2 4.1 19:41:28 10° WSW 19:42:24 11° SW 19:43:20 10° SSW
Cosmos 1766 Rocket 4.4 19:40:29 10° NNE 19:44:20 29° ENE 19:48:06 10° SE
HJ-1C 3.9 19:42:09 10° SE 19:45:15 36° ENE 19:48:23 10° N
Cosmos 1805 4.3 19:42:59 10° SE 19:46:11 24° E 19:49:24 10° NE
Cosmos 2034 Rocket 4.4 19:41:08 10° SSE 19:46:51 40° E 19:52:39 10° NNE
H-2A R/B 4.4 19:47:27 14° E 19:49:10 17° ENE 19:51:46 10° NNE
Cosmos 1624 Rocket 3.9 19:44:04 10° NNW 19:49:18 80° ENE 19:54:29 10° SSE
Cosmos 1464 Rocket 4.0 19:43:48 10° S 19:49:55 58° E 19:55:59 10° NNE
Cosmos 1441 Rocket 4.3 19:46:59 10° NNW 19:50:35 47° W 19:54:11 10° S
Meteor 1-29 3.5 19:48:32 10° NNE 19:51:49 36° E 19:55:04 10° SSE
Meteor 1-28 Rocket 3.4 19:53:16 10° N 19:57:00 73° WNW 20:00:41 10° SSW
Cosmos 1378 3.0 19:54:14 10° N 19:57:59 73° E 20:01:42 10° SSE
Meteor 1-22 Rocket 4.1 19:53:17 10° S 19:58:41 86° W 20:04:00 10° N
Cosmos 2219 Rocket 4.5 19:55:56 10° WSW 20:00:33 26° WNW 20:05:14 10° N
Cosmos 1544 4.2 19:57:57 10° SE 20:00:57 23° E 20:03:58 10° NE
Cosmos 1707 4.3 19:57:58 10° NNW 20:01:34 38° W 20:05:09 10° SSW
SJ-6B 3.4 19:58:18 10° S 20:02:11 62° W 20:06:11 10° NNW
Cosmos 2278 Rocket 3.4 20:00:01 10° NW 20:05:22 44° WSW 20:10:41 10° S
METEOR-M 4.1 20:00:41 10° SSE 20:06:02 83° ENE 20:11:25 10° NNW
Cosmos 1076 Rocket 3.5 20:01:55 10° N 20:06:13 63° E 20:10:30 10° SSE
Cosmos-2242 3.3 20:04:31 10° SSE 20:08:38 43° E 20:12:48 10° NNE
Cosmos 2297 3.7 20:03:37 10° NNW 20:09:19 87° WSW 20:14:57 10° SSE
Cosmos 1758 3.5 20:06:19 10° S 20:10:16 51° E 20:14:15 10° NNE
Meteor 1-24 Rocket 4.1 20:05:52 10° NNW 20:11:29 67° W 20:16:52 10° S
Timation 1 Rocket 4.3 20:05:45 10° NNW 20:11:42 71° ENE 20:17:39 10° SSE
USA 215 3.4 20:05:59 10° NE 20:12:31 76° NW 20:19:00 10° SW
FENGYUN 3A 3.9 20:07:35 10° SE 20:12:42 47° ENE 20:17:51 10° N
Helios 1B rocket 2.4 20:09:23 10° NNE 20:13:31 89° NW 20:17:37 10° SSW
Cosmos 192 4.4 20:13:24 10° SSW 20:18:22 84° WNW 20:23:22 10° NNE
Cosmos 1452 Rocket 3.6 20:13:23 10° N 20:18:34 56° ENE 20:22:15 19° SE
Cosmos 1408 Rocket 3.4 20:15:40 10° N 20:20:02 80° E 20:24:22 10° S
CZ-4B DEB 2.9 20:21:57 41° ESE 20:22:42 53° ENE 20:25:55 10° N
Resurs 01 Rocket 1.9 20:18:48 10° S 20:23:14 72° WSW 20:27:41 10° NNW
SeaSat 1 2.8 20:18:39 10° NE 20:23:20 41° ESE 20:27:57 10° S
Cosmos 2369 Rocket 3.6 20:20:49 10° N 20:24:49 19° NE 20:25:24 19° ENE
Cosmos 1603 3.8 20:20:10 10° S 20:25:41 54° ESE 20:31:18 10° NNE
Resurs 1-3 3.6 20:22:34 10° SSE 20:26:57 85° WSW 20:31:22 10° NNW
Cosmos 468 4.4 20:28:00 10° S 20:33:12 66° ESE 20:38:24 10° NNE
Cosmos 1943 Rocket 4.3 20:34:27 10° NE 20:35:24 11° NE 20:35:24 11° NE
FengYun 1-2 T 4.3 20:30:05 10° S 20:35:36 78° WSW 20:41:08 10° NNW
ATLAS CENTAUR R/B 3.3 20:34:18 10° NW 20:37:45 26° WSW 20:40:58 10° S
GPS 2-04 Rocket1 4.5 20:35:26 10° SSW 20:36:51 17° S 20:36:51 17° S
Cosmos 1420 Rocket 4.2 20:37:22 10° N 20:42:33 51° ENE 20:43:37 44° ESE
Cosmos 1674 3.7 20:39:47 10° N 20:42:19 33° NE 20:42:19 33° NE
NOSS 3-2 (A) 4.3 20:40:55 10° SW 20:46:48 50° NW 20:53:13 10° NNE
ALOS 2.3 20:43:08 16° S 20:46:55 76° WSW 20:51:37 10° NNW
Cosmos 1743 Rocket 3.4 20:42:27 10° N 20:46:55 74° E 20:47:53 53° SSE
ASTRO E2 4.0 20:45:41 10° WSW 20:48:52 28° S 20:48:52 28° S
Atlas Centaur 2 4.0 20:43:22 10° W 20:50:45 34° SSW 20:54:17 23° SSE
Meteor 1-21 Rocket 4.2 20:46:05 10° NNW 20:51:39 80° W 20:56:14 15° S
Cosmos 1269 Rocket 3.9 20:48:33 10° SSW 20:53:49 78° ESE 20:59:07 10° NNE
GP-B 4.0 20:51:17 10° NNE 20:54:08 36° NE 20:54:08 36° NE
Cosmos 1048 Rocket 3.8 20:55:05 10° S 21:00:23 76° ESE 21:05:40 10° NNE
OAO 3 Rocket 3.4 20:57:06 10° WSW 21:01:43 56° S 21:01:43 56° S
Nadezhda 4 Rocket 4.0 20:56:45 10° N 21:03:03 79° W 21:08:06 16° S
CZ-2D R/B 3.9 21:02:56 46° SW 21:03:38 54° W 21:07:29 10° NNW
Cosmos 1953 4.2 21:02:16 10° SW 21:05:49 31° WNW 21:09:23 10° NNW
Cosmos 1092 Rocket 3.8 21:01:56 10° N 21:08:11 83° E 21:10:19 44° SSE
Envisat 3.9 21:10:28 34° NNE 21:10:28 34° NNE 21:13:45 10° N
Cosmos 2142 Rocket 4.4 21:07:47 49° SSE 21:09:25 66° E 21:15:45 10° NNE
ASTEX 1 4.0 21:06:49 10° N 21:11:38 56° W 21:16:23 10° SSW
ATLAS 5 CENTAUR R/B 3.2 21:11:28 10° WSW 21:15:55 38° NW 21:20:45 10° NNE
Cosmos 1634 Rocket 3.8 21:18:19 42° S 21:20:39 85° E 21:26:55 10° N
H-2A R/B 4.4 21:22:44 30° WSW 21:23:13 31° W 21:26:43 10° NNW
Cosmos 2026 Rocket 4.2 21:18:47 10° N 21:23:48 54° NE 21:23:48 54° NE
CENTAUR R/B 3.2 21:20:22 10° SSW 21:34:48 - NE 21:23:41 36° SSW
ERS-1 Rocket 4.3 21:54:42 37° NW 21:54:42 37° NW 21:57:50 10° NNW
SeaSat 1 4.4 21:56:35 10° N 22:00:37 26° NW 22:04:40 10° WSW
Cosmos 2369 Rocket 3.4 22:03:42 10° NNW 22:07:12 38° NW 22:07:12 38° NW
Cosmos 1943 Rocket 4.1 22:14:49 10° NNW 22:16:56 24° NNW 22:16:56 24° NNW
